Durango, Mexico

7:35 AM CDT on April 19, 2018 (GMT -0500)
Durango

Weather History for MMDO - May, 2013

Change the Weather History Date:

Monday, May 27, 2013

  Actual Average Record
Temperature  
Mean Temperature 75 °F -  
Max Temperature 97 °F 84 °F 99 °F (2017)
Min Temperature 53 °F 56 °F 37 °F (2000)
Cooling Degree Days 10    
Growing Degree Days 25 (Base 50)    
Moisture  
Dew Point 42 °F    
Average Humidity 31    
Maximum Humidity 62    
Minimum Humidity 10    
Precipitation  
Precipitation 0.00 in - - ()
Sea Level Pressure  
Sea Level Pressure 29.87 in    
Wind  
Wind Speed 2 mph ()    
Max Wind Speed 16 mph    
Max Gust Speed -    
Visibility 11.5 miles    
Events      
Averages and records for this station are not official NWS values.
T = Trace of Precipitation, MM = Missing Value Source: Averaged Metar Reports

Daily Weather History Graph

Daily Weather History Graph

Search for Another Location

Airport or City:

Astronomy

May. 27, 2013 Rise Set
Actual Time 7:10 AM CDT 8:39 PM CDT
Civil Twilight 6:45 AM CDT 9:05 PM CDT
Nautical Twilight 6:15 AM CDT 9:34 PM CDT
Astronomical Twilight 5:44 AM CDT 10:06 PM CDT
Moon 11:28 PM CDT (5/27) 9:46 AM CDT (5/27)
Length of Visible Light 14h 19m
Length of Day
13h 29m
Waning Gibbous, 91% of the Moon is Illuminated
May 27
Waning Gibbous
May 31
Last Quarter
Jun 8
New
Jun 16
First Quarter
Jun 23
Full

Hourly Weather History & Observations

Time (CDT) Temp. Dew Point Humidity Pressure Visibility Wind Dir Wind Speed Gust Speed Precip Events Conditions
12:49 AM 72 °F 48 °F 32% 29.64 in 6 mi Calm Calm - -   Scattered Clouds
3:45 AM 65 °F 49 °F 47% 29.68 in 6 mi Calm Calm - -  
6:05 AM 57.2 °F 41.0 °F 55% 30.20 in 10.0 mi North 3.5 mph - N/A   Clear
6:40 AM 55.4 °F 41.0 °F 58% 29.77 in 10.0 mi Calm Calm - N/A   Clear
6:43 AM 59 °F 47 °F 54% 29.75 in 6 mi Calm Calm - -  
7:40 AM 53.6 °F 41.0 °F 62% 30.21 in 10.0 mi Calm Calm - N/A   Clear
8:42 AM 62.6 °F 44.6 °F 52% 30.21 in 10.0 mi Calm Calm - N/A   Clear
9:46 AM 69.8 °F 44.6 °F 40% 29.72 in 10.0 mi North 4.6 mph - N/A   Clear
9:52 AM 71 °F 46 °F 30% 29.83 in 19 mi Calm Calm - -  
10:42 AM 73.4 °F 48.2 °F 41% 30.21 in 10.0 mi Calm Calm - N/A   Clear
11:41 AM 77.0 °F 46.4 °F 34% 30.19 in 12.0 mi East 4.6 mph - N/A   Clear
12:40 PM 86 °F 49 °F 18% 29.77 in 19 mi SSW 2.2 mph - -   Partly Cloudy
12:46 PM 80.6 °F 44.6 °F 28% 29.70 in 12.0 mi SSW 3.5 mph - N/A   Clear
1:43 PM 82.4 °F 37.4 °F 20% 30.15 in 12.0 mi NW 5.8 mph - N/A   Clear
2:42 PM 86.0 °F 35.6 °F 17% 30.13 in 14.0 mi SSW 3.5 mph - N/A   Partly Cloudy
3:40 PM 92 °F 47 °F 13% 29.62 in 25 mi SSE 4.5 mph - -   Partly Cloudy
3:52 PM 86.0 °F 32.0 °F 14% 29.61 in 14.0 mi East 3.5 mph - N/A   Scattered Clouds
4:41 PM 89.6 °F 32.0 °F 13% 30.05 in 14.0 mi SE 6.9 mph - N/A   Scattered Clouds
5:42 PM 87.8 °F 30.2 °F 13% 30.03 in 14.0 mi WNW 4.6 mph - N/A   Scattered Clouds
6:40 PM 95 °F 44 °F 10% 29.44 in 22 mi ESE 2.2 mph - -   Mostly Cloudy
6:45 PM 89.6 °F 30.2 °F 12% 29.56 in 14.0 mi South 8.1 mph - N/A   Scattered Clouds
7:46 PM 87.8 °F 28.4 °F 12% 29.99 in 14.0 mi SSW 4.6 mph - N/A   Scattered Clouds
8:46 PM 80.6 °F 48.2 °F 32% 30.01 in 12.0 mi West 16.1 mph - N/A   Scattered Clouds
9:40 PM 77 °F 53 °F 32% 29.43 in 6 mi WSW 8.9 mph - -   Scattered Clouds